User: anonymous   Login
Location: Unspecified
(0.0000°N, 0.0000°E)
Time: 16:25:55
(UTC+00:00)
Language:

Envisat - Orbit

View from above orbital plane
View from above orbital plane
View from above satellite
View from above satellite

Ground track
Ground track

The orbit data is extracted from the following two-line orbital elements,

1 27386U 02009A   17147.92789296 -.00000008 +00000-0 +11004-4 0  9998
2 27386 098.2329 194.0502 0001192 077.9066 282.2253 14.37895763798168
Epoch (UTC): 27 May 2017 22:16:09
Eccentricity: 0.0001192
inclination: 98.2329°
perigee height: 764 km
apogee height: 766 km
right ascension of ascending node: 194.0502°
argument of perigee: 77.9066°
revolutions per day: 14.37895763
mean anomaly at epoch: 282.2253°
orbit number at epoch: 79816

The dashed part of the orbit path shows where the satellite is in the earth's shadow,  

DLR